Change the Weather History Date:

Friday, March 8, 2013

  Actual Average Record
Temperature  
Mean Temperature 40 °F -  
Max Temperature 48 °F 46 °F 73 °F (2009)
Min Temperature 33 °F 31 °F 17 °F (1999)
Degree Days  
Heating Degree Days 24    
Moisture  
Dew Point 25 °F    
Average Humidity 56    
Maximum Humidity 75    
Minimum Humidity 43    
Precipitation  
Precipitation 0.00 in - - ()
Sea Level Pressure  
Sea Level Pressure 30.17 in    
Wind  
Wind Speed 10 mph (NW)    
Max Wind Speed 22 mph    
Max Gust Speed 34 mph    
Visibility 10 miles    
Events      
Averages and records for this station are not official NWS values.
T = Trace of Precipitation, MM = Missing Value Source: NWS Daily Summary

Daily Weather History Graph

Daily Weather History Graph

Search for Another Location

Airport or City:

Trip Planner

Search our weather history database for the weather conditions in past years. The results will help you decide how hot, cold, wet, or windy it might be!

Date:

Astronomy

Mar. 08, 2013 Rise Set
Actual Time 6:27 AM EST 6:05 PM EST
Civil Twilight 6:00 AM EST 6:32 PM EST
Nautical Twilight 5:29 AM EST 7:03 PM EST
Astronomical Twilight 4:58 AM EST 7:34 PM EST
Moon 4:09 AM EST (3/8) 2:59 PM EST (3/8)
Length of Visible Light 12h 31m
Length of Day
11h 38m
Waning Crescent, 12% of the Moon is Illuminated
Mar 8
Waning Crescent
Mar 11
New
Mar 19
First Quarter
Mar 27
Full
Apr 3
Last Quarter

Hourly Weather History & Observations

Time (EST) Temp. Windchill Dew Point Humidity Pressure Visibility Wind Dir Wind Speed Gust Speed Precip Events Conditions
12:12 AM 33.8 °F 27.0 °F 24.8 °F 70% 30.14 in 10.0 mi WNW 8.1 mph - N/A   Clear
12:33 AM 33.8 °F 27.7 °F 26.6 °F 75% 30.14 in 10.0 mi WNW 6.9 mph - N/A   Clear
12:54 AM 33.8 °F 27.7 °F 26.6 °F 75% 30.15 in 10.0 mi WNW 6.9 mph - N/A   Scattered Clouds
1:12 AM 35.6 °F 30.7 °F 26.6 °F 70% 30.15 in 10.0 mi WNW 5.8 mph - N/A   Scattered Clouds
1:33 AM 35.6 °F 29.9 °F 26.6 °F 70% 30.15 in 10.0 mi WNW 6.9 mph - N/A   Clear
1:54 AM 35.6 °F 30.7 °F 26.6 °F 70% 30.15 in 10.0 mi WNW 5.8 mph - N/A   Clear
2:12 AM 37.4 °F 32.1 °F 26.6 °F 65% 30.15 in 10.0 mi NW 6.9 mph - N/A   Clear
2:33 AM 35.6 °F 29.9 °F 26.6 °F 70% 30.14 in 10.0 mi NW 6.9 mph - N/A   Clear
2:54 AM 35.6 °F 29.2 °F 24.8 °F 65% 30.13 in 10.0 mi NW 8.1 mph - N/A   Clear
3:12 AM 35.6 °F 29.2 °F 24.8 °F 65% 30.13 in 10.0 mi NW 8.1 mph - N/A   Clear
3:33 AM 35.6 °F 29.2 °F 24.8 °F 65% 30.13 in 10.0 mi WNW 8.1 mph - N/A   Clear
3:54 AM 35.6 °F 31.7 °F 24.8 °F 65% 30.14 in 10.0 mi NW 4.6 mph - N/A   Clear
4:15 AM 33.8 °F 27.0 °F 23.0 °F 65% 30.14 in 10.0 mi WNW 8.1 mph - N/A   Clear
4:33 AM 33.8 °F 27.0 °F 24.8 °F 70% 30.14 in 10.0 mi WNW 8.1 mph - N/A   Clear
4:54 AM 33.8 °F 26.4 °F 23.0 °F 65% 30.14 in 10.0 mi WNW 9.2 mph - N/A   Clear
5:15 AM 35.6 °F 26.6 °F 23.0 °F 60% 30.14 in 10.0 mi WNW 13.8 mph 20.7 mph N/A   Clear
5:33 AM 35.6 °F 28.6 °F 23.0 °F 60% 30.14 in 10.0 mi WNW 9.2 mph 16.1 mph N/A   Clear
5:55 AM 35.6 °F 27.5 °F 21.2 °F 56% 30.14 in 10.0 mi NW 11.5 mph 20.7 mph N/A   Scattered Clouds
6:55 AM 35.6 °F 28.6 °F 23.0 °F 60% 30.15 in 10.0 mi NW 9.2 mph 18.4 mph N/A   Scattered Clouds
7:50 AM 37.4 °F 26.6 °F 21.2 °F 52% 30.15 in 10.0 mi NW 21.9 mph 32.2 mph N/A   Mostly Cloudy
8:45 AM 39.2 °F 29.3 °F 21.2 °F 49% 30.15 in 10.0 mi WNW 20.7 mph 34.5 mph N/A   Mostly Cloudy
9:45 AM 39.2 °F 30.2 °F 23.0 °F 52% 30.15 in 10.0 mi NW 17.3 mph 33.4 mph N/A   Scattered Clouds
10:45 AM 44.6 °F 36.1 °F 24.8 °F 46% 30.15 in 10.0 mi NW 21.9 mph 32.2 mph N/A   Scattered Clouds
11:45 AM 46.4 °F 39.0 °F 24.8 °F 43% 30.15 in 10.0 mi NW 19.6 mph 32.2 mph N/A   Scattered Clouds
12:45 PM 46.4 °F 39.5 °F 24.8 °F 43% 30.14 in 10.0 mi NW 17.3 mph 33.4 mph N/A   Mostly Cloudy
1:45 PM 48.2 °F - 26.6 °F 43% 30.12 in 10.0 mi NW 21.9 mph 27.6 mph N/A   Mostly Cloudy
2:55 PM 48.2 °F - 26.6 °F 43% 30.13 in 10.0 mi NW 21.9 mph 33.4 mph N/A   Overcast
3:45 PM 48.2 °F - 26.6 °F 43% 30.14 in 10.0 mi NW 18.4 mph 31.1 mph N/A   Overcast
4:50 PM 48.2 °F - 26.6 °F 43% 30.16 in 10.0 mi NW 20.7 mph 27.6 mph N/A   Mostly Cloudy
5:45 PM 46.4 °F 39.8 °F 26.6 °F 46% 30.18 in 10.0 mi NW 16.1 mph 31.1 mph N/A   Mostly Cloudy
7:50 PM 46.4 °F 39.8 °F 26.6 °F 46% 30.23 in 10.0 mi NW 16.1 mph 25.3 mph N/A   Mostly Cloudy
8:45 PM 46.4 °F 41.1 °F 26.6 °F 46% 30.23 in 10.0 mi NW 11.5 mph 21.9 mph N/A   Partly Cloudy
9:45 PM 44.6 °F 39.2 °F 24.8 °F 46% 30.26 in 10.0 mi NW 10.4 mph 19.6 mph N/A   Partly Cloudy
10:15 PM 44.6 °F 39.7 °F 24.8 °F 46% 30.26 in 10.0 mi NW 9.2 mph 16.1 mph N/A   Scattered Clouds
10:36 PM 44.6 °F 39.2 °F 24.8 °F 46% 30.26 in 10.0 mi NW 10.4 mph 17.3 mph N/A   Clear
10:57 PM 42.8 °F 36.6 °F 24.8 °F 49% 30.27 in 10.0 mi NW 11.5 mph 18.4 mph N/A   Clear
11:15 PM 42.8 °F 37.0 °F 23.0 °F 46% 30.27 in 10.0 mi NW 10.4 mph 18.4 mph N/A   Clear
11:57 PM 42.8 °F 38.0 °F 23.0 °F 46% 30.27 in 10.0 mi NW 8.1 mph - N/A   Clear